Location: Mexico
(19.4000°N, 99.1500°W)
Time: 11:50:30
(UTC-06:00)

ISS - Pass Details

Date: 15 January 2020
Orbit: 415 x 422 km, 51.6° (Epoch: 23 January)

Event Time Altitude Azimuth Distance (km) Brightness Sun altitude
Exits shadow 06:27:55 16° 275° (W) 1,169 -2.1 -10.9°
Maximum altitude 06:29:34 23° 235° (SW) 930 -2.3 -10.5°
Drops below altitude 10° 06:32:16 10° 180° (S) 1,476 -0.7 -9.9°
Sets 06:34:37 0° 165° (SSE) 2,337 0.5 -9.4°
